sat.trackr.live / text

‹ back to catalog

ELEKTRO-L 5

NORAD 67756 · 2026-028A

PAYLOAD ACTIVE UNKNOWN

§ Identity

Operator
Country
CIS
Launch date
2026-02-12
Launch site
TYMSC
Launch vehicle
Mass (kg)
RCS (m²)

Purposes: comms

External: N2YO · Heavens-Above · Gunter

§ Orbital elements

Epoch: 2026-09-19T19:00:57.898656Z

Period
1,436.12 min
Inclination
0.0065°
Eccentricity
0.0001650
Mean motion
1.00269938 rev/d
Perigee alt
35,780.2 km
Apogee alt
35,794.1 km
Semi-major
42,165.2 km
B*
0.0000e+0
RAAN
30.1749°
Arg perigee
141.1633°
Mean anomaly
188.6646°
Rev number
219

§ Raw data

ELEKTRO-L 51 67756U 26028A   26262.79233679  .00000000  00000+0  00000+0 0  99912 67756   0.0065  30.1749 0001650 141.1633 188.6646  1.00269938  2198

JSON: /api/v1/satellites/67756 · /tle

For live sub-satellite position, see the globe view (requires WebGL).

§ Visibility from observer

Set your observer location to see the next 7 days of passes ≥ 10°. The values pass through the URL so the page stays shareable.

No JS? Fill the form by hand. The geolocation button needs JavaScript.

§ Radio — SatNOGS DB

ModeDescriptionDownlinkUplink
FM Data relay satellite to satellite 465.000 MHz
BPSK LRIT Bandwidth 200 kHz Rate 64/128 kbps 1.691 GHz

2 transmitters · refreshed weekly from db.satnogs.org